This is the latest recevied weather packets stored in our database for station/object WV5G-13. If no packets are shown the sender has not sent any weather packets the latest 10 day(s).
| Time | Temp. | Humidity | Pressure | Rain* | Wind** | Luminosity | Snow |
|---|---|---|---|---|---|---|---|
| 1777561356 | 11.11° C | 67% | 1015.6 hPa | 0 mm | - | 516 W/m² | - |
| 1777561051 | 11.11° C | 68% | 1015.7 hPa | 0 mm | - | 389 W/m² | - |
| 1777560747 | 10.56° C | 69% | 1015.4 hPa | 0 mm | - | 377 W/m² | - |
| 1777560444 | 10.56° C | 70% | 1015.6 hPa | 0 mm | - | 482 W/m² | - |
| 1777560142 | 10.56° C | 69% | 1015.8 hPa | 0 mm | - | 339 W/m² | - |
| 1777559838 | 10.56° C | 71% | 1015.6 hPa | 0 mm | - | 604 W/m² | - |
| 1777559534 | 10° C | 73% | 1015.9 hPa | 0 mm | - | 335 W/m² | - |
| 1777559231 | 9.44° C | 74% | 1015.9 hPa | 0 mm | - | 170 W/m² | - |
| 1777558926 | 9.44° C | 75% | 1016 hPa | 0 mm | - | 158 W/m² | - |
| 1777558623 | 9.44° C | 75% | 1016 hPa | 0 mm | - | 172 W/m² | - |
| 1777558318 | 9.44° C | 74% | 1016.2 hPa | 0 mm | - | 139 W/m² | - |
| 1777558015 | 9.44° C | 75% | 1016.1 hPa | 0 mm | - | 136 W/m² | - |
| 1777557711 | 9.44° C | 75% | 1016.1 hPa | 0 mm | - | 134 W/m² | - |
| 1777557408 | 8.89° C | 75% | 1016.2 hPa | 0 mm | - | 114 W/m² | - |
| 1777557104 | 8.89° C | 75% | 1016.1 hPa | 0 mm | - | 97 W/m² | - |
| 1777556800 | 8.89° C | 76% | 1016.2 hPa | 0 mm | - | 94 W/m² | - |
| 1777556497 | 8.89° C | 76% | 1016 hPa | 0 mm | - | 109 W/m² | - |
| 1777556196 | 8.89° C | 76% | 1016 hPa | 0 mm | - | 106 W/m² | - |
| 1777555892 | 8.89° C | 76% | 1016 hPa | 0 mm | - | 133 W/m² | - |
| 1777555588 | 8.89° C | 76% | 1015.8 hPa | 0 mm | - | 108 W/m² | - |
| 1777555285 | 8.89° C | 76% | 1015.8 hPa | 0 mm | - | 74 W/m² | - |
| 1777554981 | 8.33° C | 76% | 1015.7 hPa | 0 mm | - | 74 W/m² | - |
| 1777554679 | 8.33° C | 76% | 1015.6 hPa | 0 mm | - | 64 W/m² | - |
| 1777554375 | 8.33° C | 76% | 1015.5 hPa | 0 mm | - | 59 W/m² | - |
| 1777554072 | 8.33° C | 76% | 1015.6 hPa | 0 mm | - | 49 W/m² | - |
* Rain latest hour (hover to see other rain measurements)
** Current wind speed in m/s (hover to see current wind gust speed)